EW6934 Weather Reports


time (UTC)temp
C
wind
direction
speed
KPH
gust
KPH
rain 1hr
cm
rain 24hr
cm
rain mn
cm
humidity
%
barometer
mb
20260506070114 19 141 3.2 6.4 0.00 0.00 0.00 55 1014.3
20260506061602 19 142 1.6 4.8 0.00 0.00 0.00 55 1014.5
20260506044559 19 152 3.2 9.7 0.00 0.00 0.00 54 1014.7
20260506043055 20 0 1.6 9.7 0.00 0.00 0.00 54 1014.6
20260506041556 20 117 1.6 9.7 0.00 0.00 0.00 54 1014.8
20260506040100 20 70 4.8 12.9 0.00 0.00 0.00 52 1014.5
20260506034554 20 126 4.8 17.7 0.00 0.00 0.00 52 1014.7
20260506033054 20 133 3.2 17.7 0.00 0.00 0.00 52 1014.9
20260506031602 20 83 4.8 14.5 0.00 0.00 0.00 52 1014.8
20260506030112 20 114 4.8 14.5 0.00 0.00 0.00 53 1014.7
20260506024552 20 74 4.8 17.7 0.00 0.00 0.00 53 1014.6
20260506023053 20 96 3.2 16.1 0.00 0.00 0.00 53 1014.6
20260506021607 20 89 3.2 12.9 0.00 0.00 0.00 53 1014.6
20260506020054 20 76 4.8 9.7 0.00 0.00 0.00 53 1014.6
20260506014603 20 91 3.2 6.4 0.00 0.00 0.00 54 1014.5
20260506013102 20 78 3.2 4.8 0.00 0.00 0.00 53 1014.4
20260506011605 21 75 1.6 6.4 0.00 0.00 0.00 50 1014.3
20260506004627 22 87 4.8 11.3 0.00 0.00 0.00 47 1014.3
20260506003101 22 82 1.6 9.7 0.00 0.00 0.00 47 1014.4
20260506001559 22 125 3.2 9.7 0.00 0.00 0.00 46 1014.1
20260506000101 22 80 3.2 11.3 0.00 0.00 0.00 45 1014.1
20260505234615 22 0 1.6 11.3 0.00 0.00 0.00 45 1014.4
20260505233052 22 70 4.8 12.9 0.00 0.00 0.00 44 1014.4
20260505231558 22 90 1.6 11.3 0.00 0.00 0.00 44 1014.3
20260505230054 23 204 3.2 17.7 0.00 0.00 0.00 43 1014.4
20260505224559 23 167 4.8 17.7 0.00 0.00 0.00 42 1014.4
20260505223104 23 168 6.4 17.7 0.00 0.00 0.00 41 1014.5
20260505221610 23 206 8.0 22.5 0.00 0.00 0.00 42 1014.3
20260505220138 23 82 4.8 19.3 0.00 0.00 0.00 39 1014.4
20260505214615 24 144 9.7 24.1 0.00 0.00 0.00 37 1014.1
20260505213055 24 73 8.0 27.4 0.00 0.00 0.00 38 1014.3
20260505211612 24 94 6.4 24.1 0.00 0.00 0.00 37 1014.3
20260505210054 25 85 9.7 25.7 0.00 0.00 0.00 36 1014.2
20260505204554 25 114 14.5 25.7 0.00 0.00 0.00 37 1014.4
20260505203054 25 111 11.3 24.1 0.00 0.00 0.00 37 1014.7
20260505201606 24 72 12.9 25.7 0.00 0.00 0.00 37 1015.0
20260505194602 25 143 4.8 22.5 0.00 0.00 0.00 36 1015.0
20260505193050 25 85 6.4 22.5 0.00 0.00 0.00 37 1015.3
20260505191555 24 72 3.2 19.3 0.00 0.00 0.00 39 1015.6
20260505190059 23 86 12.9 20.9 0.00 0.00 0.00 39 1015.8
20260505184556 24 125 8.0 16.1 0.00 0.00 0.00 41 1016.0
20260505183059 23 79 12.9 22.5 0.00 0.00 0.00 42 1016.2
20260505181600 23 69 12.9 29.0 0.00 0.00 0.00 44 1016.5
20260505174558 23 181 8.0 24.1 0.00 0.00 0.00 42 1016.6
20260505173056 23 75 4.8 20.9 0.00 0.00 0.00 43 1016.8
20260505171600 23 78 9.7 19.3 0.00 0.00 0.00 43 1016.8
20260505170056 22 121 8.0 24.1 0.00 0.00 0.00 42 1017.1
20260505164609 22 186 8.0 19.3 0.00 0.00 0.00 41 1017.3
20260505163053 22 159 6.4 17.7 0.00 0.00 0.00 43 1017.2
20260505161554 22 124 8.0 19.3 0.00 0.00 0.00 41 1017.1
20260505160105 21 143 9.7 19.3 0.00 0.00 0.00 42 1017.3
20260505153055 21 159 8.0 16.1 0.00 0.00 0.00 45 1017.8
20260505151552 21 201 4.8 17.7 0.00 0.00 0.00 47 1018.1
20260505130111 17 0 0.0 6.4 0.00 0.00 0.00 56 1016.3
20260505124607 17 0 0.0 3.2 0.00 0.00 0.00 63 1016.2
20260505123105 16 0 0.0 1.6 0.00 0.00 0.00 63 1016.1
20260505121555 14 0 0.0 1.6 0.00 0.00 0.00 72 1016.0
20260505120101 12 0 0.0 1.6 0.00 0.00 0.00 77 1015.8
20260505114555 10 0 0.0 0.0 0.00 0.00 0.00 79 1015.6
20260505113056 10 0 0.0 0.0 0.00 0.00 0.00 78 1015.5
20260505111553 10 0 0.0 0.0 0.00 0.00 0.00 76 1015.4
20260505110104 11 25 0.0 1.6 0.00 0.00 0.00 73 1015.3
20260505101554 11 92 4.8 11.3 0.00 0.00 0.00 72 1015.5
20260505100056 10 0 0.0 1.6 0.00 0.00 0.00 79 1015.3
20260505094555 10 0 0.0 0.0 0.00 0.00 0.00 79 1015.3
20260505093054 10 0 0.0 0.0 0.00 0.00 0.00 77 1015.3
20260505091606 10 0 0.0 0.0 0.00 0.00 0.00 75 1015.4
20260505090054 11 0 0.0 0.0 0.00 0.00 0.00 73 1015.4
20260505084553 11 0 0.0 0.0 0.00 0.00 0.00 70 1015.4
20260505083056 12 0 0.0 0.0 0.00 0.00 0.00 67 1015.5
20260505081555 12 0 0.0 0.0 0.00 0.00 0.00 65 1015.5
20260505080106 13 0 0.0 1.6 0.00 0.00 0.00 61 1015.6
20260505074552 14 169 0.0 1.6 0.00 0.00 0.00 59 1015.4
20260505073058 15 0 0.0 3.2 0.00 0.00 0.00 56 1015.5
20260505071555 15 0 0.0 3.2 0.00 0.00 0.00 54 1015.5